Time,TemperatureF,DewpointF,PressureIn,WindDirection,WindDirectionDegrees,WindSpeedMPH,WindSpeedGustMPH,Humidity,HourlyPrecipIn,Conditions,Clouds,dailyrainin,SoftwareType,DateUTC
2013-02-16 00:00:00,22.0,16.8,30.06,West,278,6.0,6.0,80,0.00,,,0.00,Wunderground v.1.15,2013-02-16 05:00:00,
2013-02-16 00:05:00,22.0,16.8,30.06,West,273,6.0,7.0,80,0.00,,,0.00,Wunderground v.1.15,2013-02-16 05:05:00,
2013-02-16 00:10:00,22.1,16.6,30.06,WSW,248,5.0,7.0,79,0.00,,,0.00,Wunderground v.1.15,2013-02-16 05:10:00,
2013-02-16 00:15:00,22.0,16.2,30.06,WNW,296,5.0,7.0,78,0.00,,,0.00,Wunderground v.1.15,2013-02-16 05:15:00,
2013-02-16 00:20:00,21.9,16.7,30.06,WSW,258,5.0,7.0,80,0.00,,,0.00,Wunderground v.1.15,2013-02-16 05:20:00,
2013-02-16 00:25:00,21.8,16.0,30.07,West,277,6.0,7.0,78,0.00,,,0.00,Wunderground v.1.15,2013-02-16 05:25:00,
2013-02-16 00:35:00,21.5,15.7,30.06,West,277,6.0,7.0,78,0.00,,,0.00,Wunderground v.1.15,2013-02-16 05:35:00,
2013-02-16 00:40:00,21.6,16.1,30.06,West,263,5.0,5.0,79,0.00,,,0.00,Wunderground v.1.15,2013-02-16 05:40:00,
2013-02-16 00:45:00,21.5,16.0,30.06,West,261,5.0,6.0,79,0.00,,,0.00,Wunderground v.1.15,2013-02-16 05:45:00,
2013-02-16 00:50:00,21.3,15.8,30.06,West,265,5.0,5.0,79,0.00,,,0.00,Wunderground v.1.15,2013-02-16 05:50:00,
2013-02-16 00:55:00,21.3,15.8,30.06,West,273,4.0,8.0,79,0.00,,,0.00,Wunderground v.1.15,2013-02-16 05:55:00,
2013-02-16 01:00:00,21.2,15.7,30.06,West,271,4.0,7.0,79,0.00,,,0.00,Wunderground v.1.15,2013-02-16 06:00:00,
2013-02-16 01:10:00,21.2,15.7,30.05,West,261,5.0,5.0,79,0.00,,,0.00,Wunderground v.1.15,2013-02-16 06:10:00,
2013-02-16 01:15:00,21.2,15.7,30.05,West,265,5.0,7.0,79,0.00,,,0.00,Wunderground v.1.15,2013-02-16 06:15:00,
2013-02-16 01:20:00,21.3,15.8,30.06,WSW,242,4.0,7.0,79,0.00,,,0.00,Wunderground v.1.15,2013-02-16 06:20:00,
2013-02-16 01:25:00,21.3,15.8,30.05,WSW,248,5.0,7.0,79,0.00,,,0.00,Wunderground v.1.15,2013-02-16 06:25:00,
2013-02-16 01:30:00,21.3,15.8,30.05,West,269,5.0,5.0,79,0.00,,,0.00,Wunderground v.1.15,2013-02-16 06:30:00,
2013-02-16 01:40:00,21.3,15.8,30.05,West,264,4.0,4.0,79,0.00,,,0.00,Wunderground v.1.15,2013-02-16 06:40:00,
2013-02-16 01:45:00,21.3,16.1,30.05,WNW,286,4.0,7.0,80,0.00,,,0.00,Wunderground v.1.15,2013-02-16 06:45:00,
2013-02-16 01:50:00,21.3,15.8,30.05,West,271,4.0,4.0,79,0.00,,,0.00,Wunderground v.1.15,2013-02-16 06:50:00,
2013-02-16 01:55:00,21.3,15.8,30.05,WSW,248,4.0,7.0,79,0.00,,,0.00,Wunderground v.1.15,2013-02-16 06:55:00,
2013-02-16 02:00:00,21.3,15.8,30.05,WSW,257,3.0,3.0,79,0.00,,,0.00,Wunderground v.1.15,2013-02-16 07:00:00,
2013-02-16 02:05:00,21.3,15.8,30.05,West,274,4.0,5.0,79,0.00,,,0.00,Wunderground v.1.15,2013-02-16 07:05:00,
2013-02-16 02:10:00,21.3,15.8,30.05,West,265,4.0,7.0,79,0.00,,,0.00,Wunderground v.1.15,2013-02-16 07:10:00,
2013-02-16 02:15:00,21.3,15.8,30.06,West,259,4.0,7.0,79,0.00,,,0.00,Wunderground v.1.15,2013-02-16 07:15:00,
2013-02-16 02:20:00,21.3,15.8,30.05,NW,304,4.0,4.0,79,0.00,,,0.00,Wunderground v.1.15,2013-02-16 07:20:00,
2013-02-16 02:25:00,21.2,15.7,30.05,West,272,3.0,5.0,79,0.00,,,0.00,Wunderground v.1.15,2013-02-16 07:25:00,
2013-02-16 02:30:00,21.1,15.3,30.05,West,272,3.0,3.0,78,0.00,,,0.00,Wunderground v.1.15,2013-02-16 07:30:00,
2013-02-16 02:35:00,21.1,15.9,30.05,West,270,3.0,4.0,80,0.00,,,0.00,Wunderground v.1.15,2013-02-16 07:35:00,
2013-02-16 02:45:00,21.1,15.6,30.05,WNW,301,3.0,4.0,79,0.00,,,0.00,Wunderground v.1.15,2013-02-16 07:45:00,
2013-02-16 02:50:00,21.0,15.2,30.05,West,275,4.0,4.0,78,0.00,,,0.00,Wunderground v.1.15,2013-02-16 07:50:00,
2013-02-16 02:55:00,21.1,15.9,30.05,West,259,4.0,5.0,80,0.00,,,0.00,Wunderground v.1.15,2013-02-16 07:55:00,
2013-02-16 03:00:00,21.1,15.9,30.05,West,269,4.0,7.0,80,0.00,,,0.00,Wunderground v.1.15,2013-02-16 08:00:00,
2013-02-16 03:05:00,21.1,15.9,30.05,West,266,4.0,7.0,80,0.00,,,0.00,Wunderground v.1.15,2013-02-16 08:05:00,
2013-02-16 03:15:00,21.1,15.9,30.05,WNW,284,4.0,7.0,80,0.00,,,0.00,Wunderground v.1.15,2013-02-16 08:15:00,
2013-02-16 03:20:00,21.0,15.5,30.05,WNW,292,3.0,3.0,79,0.00,,,0.00,Wunderground v.1.15,2013-02-16 08:20:00,
2013-02-16 03:25:00,21.0,15.8,30.05,West,277,3.0,7.0,80,0.00,,,0.00,Wunderground v.1.15,2013-02-16 08:25:00,
2013-02-16 03:30:00,21.1,15.9,30.05,West,261,3.0,7.0,80,0.00,,,0.00,Wunderground v.1.15,2013-02-16 08:30:00,
2013-02-16 03:35:00,21.1,15.9,30.05,West,259,3.0,7.0,80,0.00,,,0.00,Wunderground v.1.15,2013-02-16 08:35:00,
2013-02-16 03:40:00,21.1,15.6,30.05,West,271,3.0,7.0,79,0.00,,,0.00,Wunderground v.1.15,2013-02-16 08:40:00,
2013-02-16 03:45:00,21.0,15.8,30.05,West,260,3.0,7.0,80,0.00,,,0.00,Wunderground v.1.15,2013-02-16 08:45:00,
2013-02-16 03:50:00,21.0,15.5,30.05,WSW,254,3.0,7.0,79,0.00,,,0.00,Wunderground v.1.15,2013-02-16 08:50:00,
2013-02-16 03:55:00,20.9,15.4,30.05,WSW,258,4.0,7.0,79,0.00,,,0.00,Wunderground v.1.15,2013-02-16 08:55:00,
2013-02-16 04:00:00,20.9,15.4,30.05,West,259,3.0,3.0,79,0.00,,,0.00,Wunderground v.1.15,2013-02-16 09:00:00,
2013-02-16 04:05:00,20.8,15.3,30.05,West,268,2.0,7.0,79,0.00,,,0.00,Wunderground v.1.15,2013-02-16 09:05:00,
2013-02-16 04:10:00,20.8,15.6,30.04,West,281,3.0,3.0,80,0.00,,,0.00,Wunderground v.1.15,2013-02-16 09:10:00,
2013-02-16 04:15:00,20.7,15.5,30.04,West,281,3.0,7.0,80,0.00,,,0.00,Wunderground v.1.15,2013-02-16 09:15:00,
2013-02-16 04:20:00,20.7,15.5,30.05,West,263,3.0,3.0,80,0.00,,,0.00,Wunderground v.1.15,2013-02-16 09:20:00,
2013-02-16 04:25:00,20.7,15.5,30.05,WSW,254,2.0,5.0,80,0.00,,,0.00,Wunderground v.1.15,2013-02-16 09:25:00,
2013-02-16 04:30:00,20.8,15.6,30.05,West,261,3.0,7.0,80,0.00,,,0.00,Wunderground v.1.15,2013-02-16 09:30:00,
2013-02-16 04:35:00,20.8,15.3,30.05,West,265,3.0,7.0,79,0.00,,,0.00,Wunderground v.1.15,2013-02-16 09:35:00,
2013-02-16 04:40:00,20.8,15.6,30.05,West,271,3.0,3.0,80,0.00,,,0.00,Wunderground v.1.15,2013-02-16 09:40:00,
2013-02-16 04:45:00,20.8,15.6,30.05,West,263,3.0,7.0,80,0.00,,,0.00,Wunderground v.1.15,2013-02-16 09:45:00,
2013-02-16 04:50:00,20.8,15.6,30.05,West,275,2.0,2.0,80,0.00,,,0.00,Wunderground v.1.15,2013-02-16 09:50:00,
2013-02-16 04:55:00,20.8,15.6,30.05,West,265,3.0,3.0,80,0.00,,,0.00,Wunderground v.1.15,2013-02-16 09:55:00,
2013-02-16 05:00:00,20.8,15.6,30.05,West,277,3.0,3.0,80,0.00,,,0.00,Wunderground v.1.15,2013-02-16 10:00:00,
2013-02-16 05:05:00,20.7,15.5,30.05,West,280,2.0,7.0,80,0.00,,,0.00,Wunderground v.1.15,2013-02-16 10:05:00,
2013-02-16 05:10:00,20.7,15.5,30.05,West,265,2.0,2.0,80,0.00,,,0.00,Wunderground v.1.15,2013-02-16 10:10:00,
2013-02-16 05:15:00,20.8,15.9,30.05,West,271,2.0,7.0,81,0.00,,,0.00,Wunderground v.1.15,2013-02-16 10:15:00,
2013-02-16 05:25:00,20.6,15.4,30.04,West,260,3.0,7.0,80,0.00,,,0.00,Wunderground v.1.15,2013-02-16 10:25:00,
2013-02-16 05:30:00,20.7,15.8,30.04,West,267,3.0,3.0,81,0.00,,,0.00,Wunderground v.1.15,2013-02-16 10:30:00,
2013-02-16 05:35:00,20.8,15.9,30.04,West,269,2.0,7.0,81,0.00,,,0.00,Wunderground v.1.15,2013-02-16 10:35:00,
2013-02-16 05:40:00,20.8,15.6,30.04,West,263,2.0,7.0,80,0.00,,,0.00,Wunderground v.1.15,2013-02-16 10:40:00,
2013-02-16 05:45:00,20.7,15.8,30.04,West,265,2.0,7.0,81,0.00,,,0.00,Wunderground v.1.15,2013-02-16 10:45:00,
2013-02-16 05:50:00,20.7,15.8,30.04,West,266,2.0,7.0,81,0.00,,,0.00,Wunderground v.1.15,2013-02-16 10:50:00,
2013-02-16 06:00:00,20.7,15.8,30.04,West,273,2.0,2.0,81,0.00,,,0.00,Wunderground v.1.15,2013-02-16 11:00:00,
2013-02-16 06:05:00,20.7,15.8,30.04,West,276,2.0,3.0,81,0.00,,,0.00,Wunderground v.1.15,2013-02-16 11:05:00,
2013-02-16 06:10:00,20.7,16.1,30.04,West,276,2.0,2.0,82,0.00,,,0.00,Wunderground v.1.15,2013-02-16 11:10:00,
2013-02-16 06:15:00,20.7,16.1,30.04,West,275,2.0,3.0,82,0.00,,,0.00,Wunderground v.1.15,2013-02-16 11:15:00,
2013-02-16 06:20:00,20.8,15.9,30.04,WSW,252,2.0,7.0,81,0.00,,,0.00,Wunderground v.1.15,2013-02-16 11:20:00,
2013-02-16 06:30:00,20.6,13.6,30.04,West,265,4.0,4.0,74,0.00,,,0.00,Wunderground v.1.15,2013-02-16 11:30:00,
2013-02-16 06:35:00,20.5,13.8,30.04,WSW,247,3.0,7.0,75,0.00,,,0.00,Wunderground v.1.15,2013-02-16 11:35:00,
2013-02-16 06:40:00,20.6,14.2,30.04,WSW,242,2.0,2.0,76,0.00,,,0.00,Wunderground v.1.15,2013-02-16 11:40:00,
2013-02-16 06:45:00,20.6,14.2,30.04,WSW,244,1.0,7.0,76,0.00,,,0.00,Wunderground v.1.15,2013-02-16 11:45:00,
2013-02-16 06:50:00,20.6,14.5,30.04,WSW,248,1.0,1.0,77,0.00,,,0.00,Wunderground v.1.15,2013-02-16 11:50:00,
2013-02-16 06:55:00,20.4,14.6,30.05,WSW,240,1.0,7.0,78,0.00,,,0.00,Wunderground v.1.15,2013-02-16 11:55:00,
2013-02-16 07:05:00,20.2,14.4,30.05,WSW,238,1.0,7.0,78,0.00,,,0.00,Wunderground v.1.15,2013-02-16 12:05:00,
2013-02-16 07:10:00,20.0,14.2,30.05,SW,236,0.0,7.0,78,0.00,,,0.00,Wunderground v.1.15,2013-02-16 12:10:00,
2013-02-16 07:15:00,19.8,14.0,30.05,SW,226,0.0,7.0,78,0.00,,,0.00,Wunderground v.1.15,2013-02-16 12:15:00,
2013-02-16 07:20:00,19.6,13.9,30.05,SW,222,0.0,7.0,78,0.00,,,0.00,Wunderground v.1.15,2013-02-16 12:20:00,
2013-02-16 07:25:00,19.5,13.8,30.05,SW,216,1.0,7.0,78,0.00,,,0.00,Wunderground v.1.15,2013-02-16 12:25:00,
2013-02-16 07:35:00,19.7,13.7,30.05,SSW,213,1.0,7.0,77,0.00,,,0.00,Wunderground v.1.15,2013-02-16 12:35:00,
2013-02-16 07:40:00,19.7,13.7,30.05,SSW,213,1.0,1.0,77,0.00,,,0.00,Wunderground v.1.15,2013-02-16 12:40:00,
2013-02-16 07:45:00,19.6,13.6,30.05,SSW,213,0.0,7.0,77,0.00,,,0.00,Wunderground v.1.15,2013-02-16 12:45:00,
2013-02-16 07:50:00,19.6,13.6,30.05,SSW,213,0.0,7.0,77,0.00,,,0.00,Wunderground v.1.15,2013-02-16 12:50:00,
2013-02-16 07:55:00,19.7,13.7,30.06,SSW,213,0.0,7.0,77,0.00,,,0.00,Wunderground v.1.15,2013-02-16 12:55:00,
2013-02-16 08:00:00,19.8,13.5,30.05,SSW,213,0.0,7.0,76,0.00,,,0.00,Wunderground v.1.15,2013-02-16 13:00:00,
2013-02-16 08:10:00,20.1,13.4,30.06,SSW,213,1.0,1.0,75,0.00,,,0.00,Wunderground v.1.15,2013-02-16 13:10:00,
2013-02-16 08:15:00,20.1,13.4,30.06,SSW,208,0.0,7.0,75,0.00,,,0.00,Wunderground v.1.15,2013-02-16 13:15:00,
2013-02-16 08:20:00,20.2,13.5,30.06,SSW,206,1.0,7.0,75,0.00,,,0.00,Wunderground v.1.15,2013-02-16 13:20:00,
2013-02-16 08:25:00,20.2,13.5,30.06,SSW,205,2.0,7.0,75,0.00,,,0.00,Wunderground v.1.15,2013-02-16 13:25:00,
2013-02-16 08:30:00,20.4,13.7,30.06,SSW,205,1.0,1.0,75,0.00,,,0.00,Wunderground v.1.15,2013-02-16 13:30:00,
2013-02-16 08:35:00,20.6,13.6,30.06,SE,126,1.0,7.0,74,0.00,,,0.00,Wunderground v.1.15,2013-02-16 13:35:00,
2013-02-16 08:40:00,20.7,13.7,30.06,South,174,1.0,1.0,74,0.00,,,0.00,Wunderground v.1.15,2013-02-16 13:40:00,
2013-02-16 08:45:00,20.7,13.4,30.05,SSE,167,0.0,7.0,73,0.00,,,0.00,Wunderground v.1.15,2013-02-16 13:45:00,
2013-02-16 08:50:00,21.4,14.1,30.05,SSE,166,0.0,7.0,73,0.00,,,0.00,Wunderground v.1.15,2013-02-16 13:50:00,
2013-02-16 08:55:00,22.2,13.9,30.05,SSW,198,0.0,7.0,70,0.00,,,0.00,Wunderground v.1.15,2013-02-16 13:55:00,
2013-02-16 09:00:00,22.6,13.6,30.05,SE,127,1.0,7.0,68,0.00,,,0.00,Wunderground v.1.15,2013-02-16 14:00:00,
2013-02-16 09:10:00,23.5,13.1,30.05,SE,141,1.0,7.0,64,0.00,,,0.00,Wunderground v.1.15,2013-02-16 14:10:00,
2013-02-16 09:15:00,24.0,12.9,30.04,South,188,1.0,7.0,62,0.00,,,0.00,Wunderground v.1.15,2013-02-16 14:15:00,
2013-02-16 09:20:00,24.2,13.4,30.04,SSE,155,1.0,7.0,63,0.00,,,0.00,Wunderground v.1.15,2013-02-16 14:20:00,
2013-02-16 09:25:00,24.8,13.6,30.04,SE,129,1.0,7.0,62,0.00,,,0.00,Wunderground v.1.15,2013-02-16 14:25:00,
2013-02-16 09:30:00,25.3,13.3,30.04,SSE,154,1.0,1.0,60,0.00,,,0.00,Wunderground v.1.15,2013-02-16 14:30:00,
2013-02-16 09:35:00,25.8,13.0,30.04,SE,127,1.0,7.0,58,0.00,,,0.00,Wunderground v.1.15,2013-02-16 14:35:00,
2013-02-16 09:45:00,24.9,12.2,30.04,SSE,153,1.0,7.0,58,0.00,,,0.00,Wunderground v.1.15,2013-02-16 14:45:00,
2013-02-16 09:50:00,24.9,12.2,30.03,SSE,153,1.0,7.0,58,0.00,,,0.00,Wunderground v.1.15,2013-02-16 14:50:00,
2013-02-16 09:55:00,25.3,12.6,30.03,SSW,200,0.0,7.0,58,0.00,,,0.00,Wunderground v.1.15,2013-02-16 14:55:00,
2013-02-16 10:00:00,25.8,13.0,30.03,SE,132,1.0,1.0,58,0.00,,,0.00,Wunderground v.1.15,2013-02-16 15:00:00,
2013-02-16 10:05:00,26.7,13.5,30.03,SE,146,1.0,7.0,57,0.00,,,0.00,Wunderground v.1.15,2013-02-16 15:05:00,
2013-02-16 10:15:00,27.9,13.8,30.03,ESE,123,1.0,7.0,55,0.00,,,0.00,Wunderground v.1.15,2013-02-16 15:15:00,
2013-02-16 10:20:00,28.1,14.4,30.03,East,88,1.0,1.0,56,0.00,,,0.00,Wunderground v.1.15,2013-02-16 15:20:00,
2013-02-16 10:25:00,28.3,13.8,30.03,SSW,209,0.0,4.0,54,0.00,,,0.00,Wunderground v.1.15,2013-02-16 15:25:00,
2013-02-16 10:30:00,27.6,11.8,30.03,SE,130,1.0,7.0,51,0.00,,,0.00,Wunderground v.1.15,2013-02-16 15:30:00,
2013-02-16 10:35:00,27.8,13.3,30.03,ESE,110,2.0,7.0,54,0.00,,,0.00,Wunderground v.1.15,2013-02-16 15:35:00,
2013-02-16 10:40:00,28.5,14.4,30.02,ESE,104,2.0,7.0,55,0.00,,,0.00,Wunderground v.1.15,2013-02-16 15:40:00,
2013-02-16 10:50:00,27.2,11.4,30.02,West,268,1.0,7.0,51,0.00,,,0.00,Wunderground v.1.15,2013-02-16 15:50:00,
2013-02-16 10:55:00,26.0,11.2,30.02,WNW,296,2.0,7.0,53,0.00,,,0.00,Wunderground v.1.15,2013-02-16 15:55:00,
2013-02-16 11:00:00,25.7,12.2,30.02,NW,313,2.0,2.0,56,0.00,,,0.00,Wunderground v.1.15,2013-02-16 16:00:00,
2013-02-16 11:05:00,26.3,11.9,30.02,SW,222,1.0,7.0,54,0.00,,,0.00,Wunderground v.1.15,2013-02-16 16:05:00,
2013-02-16 11:10:00,27.0,13.8,30.02,NW,315,1.0,7.0,57,0.00,,,0.00,Wunderground v.1.15,2013-02-16 16:10:00,
2013-02-16 11:20:00,27.0,12.1,30.02,SSW,212,1.0,7.0,53,0.00,,,0.00,Wunderground v.1.15,2013-02-16 16:20:00,
2013-02-16 11:25:00,26.4,12.0,30.01,NW,325,2.0,7.0,54,0.00,,,0.00,Wunderground v.1.15,2013-02-16 16:25:00,
2013-02-16 11:30:00,26.2,12.6,30.01,NNW,342,2.0,7.0,56,0.00,,,0.00,Wunderground v.1.15,2013-02-16 16:30:00,
2013-02-16 11:35:00,25.7,12.2,30.01,WNW,296,3.0,7.0,56,0.00,,,0.00,Wunderground v.1.15,2013-02-16 16:35:00,
2013-02-16 11:40:00,25.5,12.0,30.01,WNW,290,2.0,7.0,56,0.00,,,0.00,Wunderground v.1.15,2013-02-16 16:40:00,
2013-02-16 11:45:00,25.6,12.1,30.01,SW,218,3.0,7.0,56,0.00,,,0.00,Wunderground v.1.15,2013-02-16 16:45:00,
2013-02-16 11:50:00,25.8,11.4,30.00,WNW,291,3.0,3.0,54,0.00,,,0.00,Wunderground v.1.15,2013-02-16 16:50:00,
2013-02-16 11:55:00,25.8,11.4,30.00,WNW,292,2.0,4.0,54,0.00,,,0.00,Wunderground v.1.15,2013-02-16 16:55:00,
2013-02-16 12:00:00,25.9,11.9,30.00,NW,313,3.0,7.0,55,0.00,,,0.00,Wunderground v.1.15,2013-02-16 17:00:00,
2013-02-16 12:10:00,26.3,12.3,30.00,NW,313,4.0,7.0,55,0.00,,,0.00,Wunderground v.1.15,2013-02-16 17:10:00,
2013-02-16 12:15:00,26.5,14.1,30.00,NW,318,5.0,7.0,59,0.00,,,0.00,Wunderground v.1.15,2013-02-16 17:15:00,
2013-02-16 12:20:00,26.6,11.7,30.00,NW,311,4.0,4.0,53,0.00,,,0.00,Wunderground v.1.15,2013-02-16 17:20:00,
2013-02-16 12:25:00,26.6,12.2,30.00,WNW,293,3.0,7.0,54,0.00,,,0.00,Wunderground v.1.15,2013-02-16 17:25:00,
2013-02-16 12:30:00,26.7,12.7,29.99,NNW,338,2.0,2.0,55,0.00,,,0.00,Wunderground v.1.15,2013-02-16 17:30:00,
2013-02-16 12:35:00,27.8,16.1,29.99,ENE,59,2.0,7.0,61,0.00,,,0.00,Wunderground v.1.15,2013-02-16 17:35:00,
2013-02-16 12:40:00,28.1,14.8,29.99,NE,53,3.0,7.0,57,0.00,,,0.00,Wunderground v.1.15,2013-02-16 17:40:00,
2013-02-16 12:45:00,28.0,15.1,29.99,NNE,31,3.0,7.0,58,0.00,,,0.00,Wunderground v.1.15,2013-02-16 17:45:00,
2013-02-16 12:55:00,27.9,14.2,29.98,NNE,20,1.0,7.0,56,0.00,,,0.00,Wunderground v.1.15,2013-02-16 17:55:00,
2013-02-16 13:00:00,27.2,13.1,29.98,WNW,291,1.0,7.0,55,0.00,,,0.00,Wunderground v.1.15,2013-02-16 18:00:00,
2013-02-16 13:05:00,26.8,11.9,29.98,WNW,291,2.0,7.0,53,0.00,,,0.00,Wunderground v.1.15,2013-02-16 18:05:00,
2013-02-16 13:10:00,26.8,11.5,29.98,West,271,1.0,7.0,52,0.00,,,0.00,Wunderground v.1.15,2013-02-16 18:10:00,
2013-02-16 13:15:00,27.1,13.1,29.98,NW,321,2.0,7.0,55,0.00,,,0.00,Wunderground v.1.15,2013-02-16 18:15:00,
2013-02-16 13:20:00,27.2,11.9,29.97,WNW,298,3.0,7.0,52,0.00,,,0.00,Wunderground v.1.15,2013-02-16 18:20:00,
2013-02-16 13:30:00,26.9,11.2,29.97,West,271,5.0,7.0,51,0.00,,,0.00,Wunderground v.1.15,2013-02-16 18:30:00,
2013-02-16 13:35:00,26.3,10.6,29.97,WNW,284,5.0,7.0,51,0.00,,,0.00,Wunderground v.1.15,2013-02-16 18:35:00,
2013-02-16 13:40:00,26.4,10.7,29.97,West,275,4.0,7.0,51,0.00,,,0.00,Wunderground v.1.15,2013-02-16 18:40:00,
2013-02-16 13:45:00,26.6,11.3,29.97,SW,215,2.0,7.0,52,0.00,,,0.00,Wunderground v.1.15,2013-02-16 18:45:00,
2013-02-16 13:50:00,26.7,11.8,29.97,SW,222,4.0,7.0,53,0.00,,,0.00,Wunderground v.1.15,2013-02-16 18:50:00,
2013-02-16 14:00:00,27.2,10.5,29.96,South,191,4.0,4.0,49,0.00,,,0.00,Wunderground v.1.15,2013-02-16 19:00:00,
2013-02-16 14:05:00,27.6,12.7,29.96,WNW,292,3.0,7.0,53,0.00,,,0.00,Wunderground v.1.15,2013-02-16 19:05:00,
2013-02-16 14:10:00,28.0,11.7,29.96,SW,222,2.0,7.0,50,0.00,,,0.00,Wunderground v.1.15,2013-02-16 19:10:00,
2013-02-16 14:15:00,27.5,10.4,29.96,West,265,4.0,7.0,48,0.00,,,0.00,Wunderground v.1.15,2013-02-16 19:15:00,
2013-02-16 14:20:00,27.2,10.1,29.96,West,281,4.0,7.0,48,0.00,,,0.00,Wunderground v.1.15,2013-02-16 19:20:00,
2013-02-16 14:25:00,26.9,9.3,29.96,WNW,287,6.0,7.0,47,0.00,,,0.00,Wunderground v.1.15,2013-02-16 19:25:00,
2013-02-16 14:35:00,26.7,10.1,29.95,WSW,251,4.0,6.0,49,0.00,,,0.00,Wunderground v.1.15,2013-02-16 19:35:00,
2013-02-16 14:40:00,26.6,10.4,29.95,West,267,4.0,7.0,50,0.00,,,0.00,Wunderground v.1.15,2013-02-16 19:40:00,
2013-02-16 14:45:00,26.6,10.9,29.95,WNW,290,5.0,7.0,51,0.00,,,0.00,Wunderground v.1.15,2013-02-16 19:45:00,
2013-02-16 14:50:00,26.6,9.5,29.95,WSW,247,2.0,7.0,48,0.00,,,0.00,Wunderground v.1.15,2013-02-16 19:50:00,
2013-02-16 14:55:00,26.6,10.4,29.95,West,271,2.0,7.0,50,0.00,,,0.00,Wunderground v.1.15,2013-02-16 19:55:00,
2013-02-16 15:05:00,27.0,11.3,29.95,West,259,3.0,7.0,51,0.00,,,0.00,Wunderground v.1.15,2013-02-16 20:05:00,
2013-02-16 15:10:00,26.9,10.7,29.95,WNW,287,4.0,7.0,50,0.00,,,0.00,Wunderground v.1.15,2013-02-16 20:10:00,
2013-02-16 15:15:00,26.8,10.6,29.95,NW,307,4.0,7.0,50,0.00,,,0.00,Wunderground v.1.15,2013-02-16 20:15:00,
2013-02-16 15:20:00,26.7,10.5,29.95,NW,307,2.0,2.0,50,0.00,,,0.00,Wunderground v.1.15,2013-02-16 20:20:00,
2013-02-16 15:25:00,26.7,11.4,29.95,NW,307,1.0,7.0,52,0.00,,,0.00,Wunderground v.1.15,2013-02-16 20:25:00,
2013-02-16 15:30:00,26.8,11.5,29.95,West,267,0.0,7.0,52,0.00,,,0.00,Wunderground v.1.15,2013-02-16 20:30:00,
2013-02-16 15:40:00,26.3,12.3,29.96,North,5,3.0,3.0,55,0.00,,,0.00,Wunderground v.1.15,2013-02-16 20:40:00,
2013-02-16 15:45:00,26.3,12.3,29.95,NNE,28,3.0,7.0,55,0.00,,,0.00,Wunderground v.1.15,2013-02-16 20:45:00,
2013-02-16 15:50:00,26.3,11.9,29.95,NNE,14,3.0,7.0,54,0.00,,,0.00,Wunderground v.1.15,2013-02-16 20:50:00,
2013-02-16 15:55:00,26.3,12.3,29.95,NW,321,3.0,7.0,55,0.00,,,0.00,Wunderground v.1.15,2013-02-16 20:55:00,
2013-02-16 16:00:00,26.3,11.9,29.95,NW,321,2.0,2.0,54,0.00,,,0.00,Wunderground v.1.15,2013-02-16 21:00:00,
2013-02-16 16:05:00,26.4,12.4,29.95,West,281,1.0,3.0,55,0.00,,,0.00,Wunderground v.1.15,2013-02-16 21:05:00,
2013-02-16 16:10:00,26.2,11.8,29.95,NW,307,2.0,2.0,54,0.00,,,0.00,Wunderground v.1.15,2013-02-16 21:10:00,
2013-02-16 16:15:00,26.1,11.3,29.95,NW,307,1.0,7.0,53,0.00,,,0.00,Wunderground v.1.15,2013-02-16 21:15:00,
2013-02-16 16:20:00,26.2,12.6,29.95,WNW,300,1.0,7.0,56,0.00,,,0.00,Wunderground v.1.15,2013-02-16 21:20:00,
2013-02-16 16:25:00,26.1,12.5,29.96,WNW,302,2.0,7.0,56,0.00,,,0.00,Wunderground v.1.15,2013-02-16 21:25:00,
2013-02-16 16:30:00,26.1,12.1,29.96,NNW,327,1.0,7.0,55,0.00,,,0.00,Wunderground v.1.15,2013-02-16 21:30:00,
2013-02-16 16:40:00,26.1,13.3,29.96,North,11,2.0,7.0,58,0.00,,,0.00,Wunderground v.1.15,2013-02-16 21:40:00,
2013-02-16 16:45:00,26.0,12.8,29.96,North,11,3.0,7.0,57,0.00,,,0.00,Wunderground v.1.15,2013-02-16 21:45:00,
2013-02-16 16:50:00,26.0,13.2,29.96,NE,43,2.0,2.0,58,0.00,,,0.00,Wunderground v.1.15,2013-02-16 21:50:00,
2013-02-16 16:55:00,26.0,13.2,29.96,NNE,12,1.0,7.0,58,0.00,,,0.00,Wunderground v.1.15,2013-02-16 21:55:00,
2013-02-16 17:00:00,26.0,12.8,29.96,WNW,291,2.0,2.0,57,0.00,,,0.00,Wunderground v.1.15,2013-02-16 22:00:00,
2013-02-16 17:05:00,25.9,13.5,29.96,WNW,286,1.0,7.0,59,0.00,,,0.00,Wunderground v.1.15,2013-02-16 22:05:00,
2013-02-16 17:10:00,25.9,13.5,29.96,WSW,255,1.0,7.0,59,0.00,,,0.00,Wunderground v.1.15,2013-02-16 22:10:00,
2013-02-16 17:15:00,26.0,13.2,29.96,NW,310,3.0,7.0,58,0.00,,,0.00,Wunderground v.1.15,2013-02-16 22:15:00,
2013-02-16 17:20:00,25.8,13.0,29.96,WNW,291,3.0,3.0,58,0.00,,,0.00,Wunderground v.1.15,2013-02-16 22:20:00,
2013-02-16 17:25:00,25.7,14.5,29.96,WNW,290,2.0,5.0,62,0.00,,,0.00,Wunderground v.1.15,2013-02-16 22:25:00,
2013-02-16 17:30:00,25.0,15.2,29.97,WNW,293,4.0,7.0,66,0.00,,,0.00,Wunderground v.1.15,2013-02-16 22:30:00,
2013-02-16 17:35:00,24.8,15.7,29.97,North,355,4.0,7.0,68,0.00,,,0.00,Wunderground v.1.15,2013-02-16 22:35:00,
2013-02-16 17:45:00,24.4,17.0,29.98,NW,325,4.0,7.0,73,0.00,,,0.00,Wunderground v.1.15,2013-02-16 22:45:00,
2013-02-16 17:50:00,24.1,17.6,29.98,WNW,298,4.0,4.0,76,0.00,,,0.00,Wunderground v.1.15,2013-02-16 22:50:00,
2013-02-16 17:55:00,23.8,17.9,29.98,NW,309,3.0,7.0,78,0.00,,,0.00,Wunderground v.1.15,2013-02-16 22:55:00,
2013-02-16 18:00:00,23.6,18.3,29.98,West,271,4.0,7.0,80,0.00,,,0.00,Wunderground v.1.15,2013-02-16 23:00:00,
2013-02-16 18:05:00,23.6,18.6,29.98,WNW,288,4.0,7.0,81,0.00,,,0.00,Wunderground v.1.15,2013-02-16 23:05:00,
2013-02-16 18:10:00,23.6,19.5,29.99,West,259,5.0,7.0,84,0.00,,,0.00,Wunderground v.1.15,2013-02-16 23:10:00,
2013-02-16 18:20:00,22.6,19.6,29.99,West,268,5.0,5.0,88,0.00,,,0.00,Wunderground v.1.15,2013-02-16 23:20:00,
2013-02-16 18:25:00,21.8,19.1,29.99,WNW,290,5.0,7.0,89,0.00,,,0.00,Wunderground v.1.15,2013-02-16 23:25:00,
2013-02-16 18:30:00,21.3,18.8,29.99,WNW,297,6.0,6.0,90,0.00,,,0.00,Wunderground v.1.15,2013-02-16 23:30:00,
2013-02-16 18:35:00,21.1,18.9,29.99,WNW,282,4.0,7.0,91,0.00,,,0.00,Wunderground v.1.15,2013-02-16 23:35:00,
2013-02-16 18:40:00,21.1,19.1,29.99,West,270,3.0,3.0,92,0.00,,,0.00,Wunderground v.1.15,2013-02-16 23:40:00,
2013-02-16 18:50:00,21.1,18.9,29.99,WNW,284,2.0,2.0,91,0.00,,,0.00,Wunderground v.1.15,2013-02-16 23:50:00,
2013-02-16 18:55:00,21.1,18.9,29.99,WNW,284,1.0,7.0,91,0.00,,,0.00,Wunderground v.1.15,2013-02-16 23:55:00,
2013-02-16 19:00:00,21.0,18.8,29.99,WNW,284,1.0,7.0,91,0.00,,,0.00,Wunderground v.1.15,2013-02-17 00:00:00,
2013-02-16 19:05:00,20.9,18.7,29.99,WNW,284,0.0,7.0,91,0.00,,,0.00,Wunderground v.1.15,2013-02-17 00:05:00,
2013-02-16 19:10:00,20.8,18.6,29.99,WNW,284,0.0,7.0,91,0.00,,,0.00,Wunderground v.1.15,2013-02-17 00:10:00,
2013-02-16 19:15:00,20.8,18.6,29.99,WNW,284,0.0,7.0,91,0.00,,,0.00,Wunderground v.1.15,2013-02-17 00:15:00,
2013-02-16 19:25:00,20.7,18.5,29.99,WNW,284,0.0,7.0,91,0.00,,,0.00,Wunderground v.1.15,2013-02-17 00:25:00,
2013-02-16 19:30:00,20.5,18.3,29.98,WNW,284,0.0,7.0,91,0.00,,,0.00,Wunderground v.1.15,2013-02-17 00:30:00,
2013-02-16 19:35:00,20.4,18.2,29.98,WNW,284,0.0,7.0,91,0.00,,,0.00,Wunderground v.1.15,2013-02-17 00:35:00,
2013-02-16 19:40:00,20.6,18.4,29.98,WNW,284,1.0,1.0,91,0.00,,,0.00,Wunderground v.1.15,2013-02-17 00:40:00,
2013-02-16 19:45:00,20.9,18.7,29.98,West,280,1.0,7.0,91,0.00,,,0.00,Wunderground v.1.15,2013-02-17 00:45:00,
2013-02-16 19:55:00,21.1,18.9,29.98,West,261,1.0,7.0,91,0.00,,,0.00,Wunderground v.1.15,2013-02-17 00:55:00,
2013-02-16 20:00:00,21.2,18.7,29.98,West,270,2.0,7.0,90,0.00,,,0.00,Wunderground v.1.15,2013-02-17 01:00:00,
2013-02-16 20:05:00,21.3,18.6,29.98,WSW,257,3.0,7.0,89,0.00,,,0.00,Wunderground v.1.15,2013-02-17 01:05:00,
2013-02-16 20:10:00,21.4,18.7,29.98,West,264,3.0,3.0,89,0.00,,,0.00,Wunderground v.1.15,2013-02-17 01:10:00,
2013-02-16 20:15:00,21.4,18.7,29.98,West,268,3.0,5.0,89,0.00,,,0.00,Wunderground v.1.15,2013-02-17 01:15:00,
2013-02-16 20:20:00,21.4,18.4,29.98,West,278,4.0,4.0,88,0.00,,,0.00,Wunderground v.1.15,2013-02-17 01:20:00,
2013-02-16 20:30:00,21.2,17.9,29.98,WSW,251,4.0,7.0,87,0.00,,,0.00,Wunderground v.1.15,2013-02-17 01:30:00,
2013-02-16 20:35:00,21.3,17.5,29.98,West,271,5.0,7.0,85,0.00,,,0.00,Wunderground v.1.15,2013-02-17 01:35:00,
2013-02-16 20:40:00,21.2,16.8,29.98,West,273,7.0,8.0,83,0.00,,,0.00,Wunderground v.1.15,2013-02-17 01:40:00,
2013-02-16 20:45:00,21.1,16.7,29.97,West,275,7.0,9.0,83,0.00,,,0.00,Wunderground v.1.15,2013-02-17 01:45:00,
2013-02-16 20:50:00,21.0,16.1,29.97,West,274,7.0,7.0,81,0.00,,,0.00,Wunderground v.1.15,2013-02-17 01:50:00,
2013-02-16 21:00:00,20.4,15.5,29.97,WNW,289,5.0,5.0,81,0.00,,,0.00,Wunderground v.1.15,2013-02-17 02:00:00,
2013-02-16 21:05:00,20.2,15.0,29.97,WNW,288,4.0,7.0,80,0.00,,,0.00,Wunderground v.1.15,2013-02-17 02:05:00,
2013-02-16 21:10:00,20.1,14.9,29.97,West,277,4.0,7.0,80,0.00,,,0.00,Wunderground v.1.15,2013-02-17 02:10:00,
2013-02-16 21:15:00,20.1,14.6,29.97,WNW,298,3.0,7.0,79,0.00,,,0.00,Wunderground v.1.15,2013-02-17 02:15:00,
2013-02-16 21:20:00,19.9,14.4,29.97,WNW,296,1.0,1.0,79,0.00,,,0.00,Wunderground v.1.15,2013-02-17 02:20:00,
2013-02-16 21:25:00,19.7,14.2,29.97,West,279,1.0,7.0,79,0.00,,,0.00,Wunderground v.1.15,2013-02-17 02:25:00,
2013-02-16 21:34:00,19.4,14.2,29.97,West,279,0.0,7.0,80,0.00,,,0.00,Wunderground v.1.15,2013-02-17 02:34:00,
2013-02-16 21:40:00,19.1,14.2,29.97,West,279,0.0,7.0,81,0.00,,,0.00,Wunderground v.1.15,2013-02-17 02:40:00,
2013-02-16 21:45:00,18.8,13.9,29.97,West,279,0.0,7.0,81,0.00,,,0.00,Wunderground v.1.15,2013-02-17 02:45:00,
2013-02-16 21:50:00,18.7,13.8,29.96,West,279,0.0,7.0,81,0.00,,,0.00,Wunderground v.1.15,2013-02-17 02:50:00,
2013-02-16 21:55:00,18.8,14.2,29.96,West,279,0.0,7.0,82,0.00,,,0.00,Wunderground v.1.15,2013-02-17 02:55:00,
2013-02-16 22:00:00,19.0,14.1,29.96,West,279,0.0,7.0,81,0.00,,,0.00,Wunderground v.1.15,2013-02-17 03:00:00,
2013-02-16 22:05:00,19.2,14.3,29.96,West,279,0.0,7.0,81,0.00,,,0.00,Wunderground v.1.15,2013-02-17 03:05:00,
2013-02-16 22:10:00,19.2,14.3,29.96,West,279,0.0,7.0,81,0.00,,,0.00,Wunderground v.1.15,2013-02-17 03:10:00,
2013-02-16 22:15:00,19.2,14.3,29.96,West,279,0.0,7.0,81,0.00,,,0.00,Wunderground v.1.15,2013-02-17 03:15:00,
2013-02-16 22:20:00,19.4,14.2,29.96,West,279,0.0,7.0,80,0.00,,,0.00,Wunderground v.1.15,2013-02-17 03:20:00,
2013-02-16 22:25:00,19.2,14.0,29.96,West,279,0.0,7.0,80,0.00,,,0.00,Wunderground v.1.15,2013-02-17 03:25:00,
2013-02-16 22:35:00,19.2,13.8,29.95,West,279,1.0,7.0,79,0.00,,,0.00,Wunderground v.1.15,2013-02-17 03:35:00,
2013-02-16 22:40:00,19.2,14.0,29.95,West,279,0.0,7.0,80,0.00,,,0.00,Wunderground v.1.15,2013-02-17 03:40:00,
2013-02-16 22:45:00,19.3,13.9,29.95,West,259,0.0,7.0,79,0.00,,,0.00,Wunderground v.1.15,2013-02-17 03:45:00,
2013-02-16 22:50:00,19.3,13.9,29.95,WSW,252,1.0,7.0,79,0.00,,,0.00,Wunderground v.1.15,2013-02-17 03:50:00,
2013-02-16 22:55:00,19.3,13.9,29.95,West,272,2.0,7.0,79,0.00,,,0.00,Wunderground v.1.15,2013-02-17 03:55:00,
2013-02-16 23:00:00,19.0,13.6,29.94,West,271,1.0,7.0,79,0.00,,,0.00,Wunderground v.1.15,2013-02-17 04:00:00,
2013-02-16 23:10:00,18.9,12.9,29.94,WSW,252,1.0,1.0,77,0.00,,,0.00,Wunderground v.1.15,2013-02-17 04:10:00,
2013-02-16 23:15:00,18.6,12.3,29.94,WSW,252,0.0,7.0,76,0.00,,,0.00,Wunderground v.1.15,2013-02-17 04:15:00,
2013-02-16 23:20:00,18.4,12.4,29.94,WSW,252,0.0,7.0,77,0.00,,,0.00,Wunderground v.1.15,2013-02-17 04:20:00,
2013-02-16 23:25:00,18.3,12.6,29.94,WSW,252,0.0,7.0,78,0.00,,,0.00,Wunderground v.1.15,2013-02-17 04:25:00,
2013-02-16 23:30:00,18.1,12.4,29.94,WSW,252,0.0,7.0,78,0.00,,,0.00,Wunderground v.1.15,2013-02-17 04:30:00,
2013-02-16 23:40:00,17.9,12.5,29.93,WSW,250,2.0,2.0,79,0.00,,,0.00,Wunderground v.1.15,2013-02-17 04:40:00,
2013-02-16 23:45:00,17.7,12.3,29.93,WSW,250,1.0,7.0,79,0.00,,,0.00,Wunderground v.1.15,2013-02-17 04:45:00,
2013-02-16 23:50:00,17.5,12.4,29.93,SW,215,1.0,7.0,80,0.00,,,0.00,Wunderground v.1.15,2013-02-17 04:50:00,
2013-02-16 23:55:00,17.4,12.0,29.93,SW,217,2.0,7.0,79,0.00,,,0.00,Wunderground v.1.15,2013-02-17 04:55:00,